User: anonymous   Login
Location: Unspecified
(51.3762°N, 0.0000°E)
Time: 11:20:50
(UTC+00:00)
Language:

BEESAT 3 - Orbit

View from above orbital plane
View from above orbital plane
View from above satellite
View from above satellite

Ground track
Ground track

The orbit data is extracted from the following two-line orbital elements,

1 39134U 13015E   19228.96150603 +.00000812 +00000-0 +46256-4 0  9990
2 39134 064.8625 188.4007 0034211 294.5968 065.1596 15.20250329349226
Epoch (UTC): 16 August 2019 23:04:34
Eccentricity: 0.0034211
inclination: 64.8625°
perigee height: 481 km
apogee height: 528 km
right ascension of ascending node: 188.4007°
argument of perigee: 294.5968°
revolutions per day: 15.20250329
mean anomaly at epoch: 65.1596°
orbit number at epoch: 34922

The dashed part of the orbit path shows where the satellite is in the earth's shadow,  

DLR